Hourly Weather Goianapolis

Today, 7 May, Friday

Time Temperature Precipitation Wind Pressure Humidity
00:00 +17°C° 0 mm 0 mps 679 mmHg 65%
01:00 +17°C° 0 mm 0 mps 679 mmHg 66%
02:00 +17°C° 0 mm 0 mps 678 mmHg 66%
03:00 +16°C° 0 mm 0 mps 678 mmHg 67%
04:00 +16°C° 0 mm 0 mps 678 mmHg 67%
05:00 +16°C° 0 mm 0 mps 678 mmHg 66%
06:00 +16°C° 0 mm 0 mps 678 mmHg 66%
07:00 +19°C° 0 mm 1 mps 679 mmHg 62%
08:00 +21°C° 0 mm 1 mps 680 mmHg 57%
09:00 +23°C° 0 mm 2 mps 681 mmHg 52%
10:00 +24°C° 0 mm 1 mps 681 mmHg 47%
11:00 +26°C° 0 mm 1 mps 681 mmHg 42%
12:00 +28°C° 0 mm 1 mps 681 mmHg 37%
13:00 +28°C° 0 mm 1 mps 680 mmHg 36%
14:00 +29°C° 0 mm 1 mps 680 mmHg 36%
15:00 +29°C° 0 mm 1 mps 679 mmHg 35%
16:00 +27°C° 0 mm 1 mps 679 mmHg 42%
17:00 +24°C° 0 mm 1 mps 679 mmHg 48%
18:00 +22°C° 0 mm 1 mps 679 mmHg 55%
19:00 +22°C° 0 mm 1 mps 679 mmHg 55%
20:00 +21°C° 0 mm 1 mps 679 mmHg 55%
21:00 +20°C° 0 mm 1 mps 680 mmHg 55%
22:00 +20°C° 0 mm 1 mps 680 mmHg 55%
23:00 +19°C° 0 mm 1 mps 680 mmHg 55%

Tomorrow, 8 May, Saturday

Time Temperature Precipitation Wind Pressure Humidity
00:00 +19°C° 0 mm 1 mps 680 mmHg 56%
01:00 +18°C° 0 mm 1 mps 679 mmHg 57%
02:00 +18°C° 0 mm 1 mps 679 mmHg 58%
03:00 +16°C° 0 mm 1 mps 679 mmHg 59%
04:00 +16°C° 0 mm 1 mps 679 mmHg 60%
05:00 +16°C° 0 mm 1 mps 679 mmHg 61%
06:00 +15°C° 0 mm 1 mps 679 mmHg 62%
07:00 +19°C° 0 mm 1 mps 680 mmHg 57%
08:00 +21°C° 0 mm 1 mps 681 mmHg 52%
09:00 +23°C° 0 mm 2 mps 682 mmHg 48%
10:00 +25°C° 0 mm 2 mps 682 mmHg 44%
11:00 +27°C° 0 mm 3 mps 682 mmHg 40%
12:00 +29°C° 0 mm 3 mps 682 mmHg 37%
13:00 +29°C° 0 mm 3 mps 682 mmHg 36%
14:00 +29°C° 0 mm 2 mps 681 mmHg 35%
15:00 +30°C° 0 mm 2 mps 681 mmHg 35%
16:00 +28°C° 0 mm 2 mps 680 mmHg 41%
17:00 +25°C° 0 mm 1 mps 680 mmHg 47%
18:00 +23°C° 0 mm 1 mps 679 mmHg 53%
19:00 +23°C° 0 mm 1 mps 680 mmHg 53%
20:00 +22°C° 0 mm 1 mps 680 mmHg 54%
21:00 +20°C° 0 mm 2 mps 680 mmHg 54%
22:00 +20°C° 0 mm 2 mps 680 mmHg 55%
23:00 +20°C° 0 mm 2 mps 680 mmHg 57%

Day after tomorrow, 9 May, Sunday

Time Temperature Precipitation Wind Pressure Humidity
00:00 +19°C° 0 mm 2 mps 680 mmHg 58%
01:00 +19°C° 0 mm 2 mps 679 mmHg 57%
02:00 +20°C° 0 mm 1 mps 679 mmHg 56%
03:00 +19°C° 0 mm 1 mps 679 mmHg 55%
04:00 +19°C° 0 mm 2 mps 679 mmHg 57%
05:00 +19°C° 0 mm 2 mps 679 mmHg 59%
06:00 +19°C° 0 mm 3 mps 680 mmHg 60%
07:00 +20°C° 0 mm 3 mps 680 mmHg 60%
08:00 +22°C° 0 mm 4 mps 681 mmHg 60%
09:00 +23°C° 0 mm 5 mps 682 mmHg 61%
10:00 +26°C° 0 mm 5 mps 682 mmHg 56%
11:00 +27°C° 0 mm 4 mps 682 mmHg 50%
12:00 +29°C° 0 mm 4 mps 682 mmHg 45%
13:00 +29°C° 0 mm 3 mps 682 mmHg 44%
14:00 +29°C° 0 mm 3 mps 681 mmHg 42%
15:00 +30°C° 0 mm 2 mps 680 mmHg 40%
16:00 +28°C° 0 mm 2 mps 680 mmHg 44%
17:00 +26°C° 0 mm 2 mps 680 mmHg 48%
18:00 +25°C° 0 mm 2 mps 680 mmHg 52%
19:00 +24°C° 0 mm 2 mps 680 mmHg 53%
20:00 +24°C° 0 mm 2 mps 680 mmHg 55%
21:00 +23°C° 0 mm 2 mps 681 mmHg 56%
22:00 +23°C° 0 mm 2 mps 681 mmHg 58%
23:00 +21°C° 0 mm 3 mps 680 mmHg 59%

10 May, Monday

Time Temperature Precipitation Wind Pressure Humidity
00:00 +21°C° 0 mm 3 mps 680 mmHg 61%
01:00 +20°C° 0 mm 3 mps 680 mmHg 61%
02:00 +20°C° 0 mm 3 mps 679 mmHg 60%
03:00 +20°C° 0 mm 3 mps 679 mmHg 60%
04:00 +19°C° 0 mm 3 mps 679 mmHg 61%
05:00 +19°C° 0 mm 3 mps 679 mmHg 62%
06:00 +18°C° 0 mm 4 mps 680 mmHg 64%
07:00 +20°C° 0 mm 4 mps 680 mmHg 62%
08:00 +21°C° 0 mm 5 mps 681 mmHg 59%
09:00 +22°C° 0 mm 5 mps 682 mmHg 57%
10:00 +25°C° 0 mm 5 mps 682 mmHg 51%
11:00 +27°C° 0 mm 5 mps 682 mmHg 45%
12:00 +28°C° 0 mm 4 mps 682 mmHg 39%
13:00 +29°C° 0 mm 4 mps 681 mmHg 37%
14:00 +29°C° 0 mm 3 mps 681 mmHg 36%
15:00 +29°C° 0 mm 3 mps 680 mmHg 34%
16:00 +27°C° 0 mm 2 mps 680 mmHg 41%
17:00 +25°C° 0 mm 2 mps 679 mmHg 47%
18:00 +23°C° 0 mm 2 mps 679 mmHg 54%
19:00 +21°C° 0 mm 2 mps 679 mmHg 56%
20:00 +20°C° 0 mm 2 mps 679 mmHg 59%
21:00 +19°C° 0 mm 2 mps 679 mmHg 61%
22:00 +18°C° 0 mm 2 mps 679 mmHg 63%
23:00 +18°C° 0 mm 2 mps 679 mmHg 64%

11 May, Tuesday

Time Temperature Precipitation Wind Pressure Humidity
00:00 +17°C° 0 mm 2 mps 679 mmHg 65%
01:00 +17°C° 0 mm 2 mps 679 mmHg 65%
02:00 +17°C° 0 mm 2 mps 678 mmHg 64%
03:00 +16°C° 0 mm 2 mps 678 mmHg 64%
04:00 +16°C° 0 mm 2 mps 678 mmHg 65%
05:00 +16°C° 0 mm 2 mps 678 mmHg 66%
06:00 +15°C° 0 mm 2 mps 679 mmHg 67%
07:00 +17°C° 0 mm 3 mps 679 mmHg 63%
08:00 +20°C° 0 mm 3 mps 680 mmHg 58%
09:00 +22°C° 0 mm 4 mps 681 mmHg 54%
10:00 +23°C° 0 mm 4 mps 681 mmHg 48%
11:00 +26°C° 0 mm 3 mps 681 mmHg 42%
12:00 +28°C° 0 mm 3 mps 681 mmHg 37%
13:00 +28°C° 0 mm 2 mps 680 mmHg 35%
14:00 +29°C° 0 mm 2 mps 680 mmHg 33%
15:00 +29°C° 0 mm 1 mps 679 mmHg 32%
16:00 +27°C° 0 mm 1 mps 679 mmHg 39%
17:00 +25°C° 0 mm 1 mps 678 mmHg 45%
18:00 +22°C° 0 mm 1 mps 678 mmHg 52%
19:00 +22°C° 0 mm 1 mps 678 mmHg 53%
20:00 +21°C° 0 mm 1 mps 678 mmHg 55%
21:00 +20°C° 0 mm 1 mps 679 mmHg 56%
22:00 +20°C° 0 mm 1 mps 678 mmHg 59%
23:00 +18°C° 0 mm 2 mps 678 mmHg 62%

12 May, Wednesday

Time Temperature Precipitation Wind Pressure Humidity
00:00 +17°C° 0 mm 2 mps 678 mmHg 65%
01:00 +17°C° 0 mm 2 mps 678 mmHg 65%
02:00 +17°C° 0 mm 2 mps 678 mmHg 65%
03:00 +17°C° 0 mm 2 mps 677 mmHg 66%
04:00 +17°C° 0 mm 2 mps 678 mmHg 65%
05:00 +17°C° 0 mm 2 mps 678 mmHg 64%
06:00 +17°C° 0 mm 2 mps 678 mmHg 63%
07:00 +19°C° 0 mm 2 mps 679 mmHg 59%
08:00 +21°C° 0 mm 2 mps 680 mmHg 54%
09:00 +23°C° 0 mm 2 mps 680 mmHg 49%
10:00 +25°C° 0 mm 2 mps 681 mmHg 44%
11:00 +27°C° 0 mm 2 mps 681 mmHg 38%
12:00 +28°C° 0 mm 2 mps 681 mmHg 32%
13:00 +28°C° 0 mm 2 mps 680 mmHg 32%
14:00 +28°C° 0 mm 1 mps 679 mmHg 32%
15:00 +28°C° 0 mm 1 mps 679 mmHg 32%
16:00 +26°C° 0 mm 1 mps 679 mmHg 38%
17:00 +24°C° 0 mm 1 mps 678 mmHg 43%
18:00 +22°C° 0 mm 1 mps 678 mmHg 49%
19:00 +21°C° 0 mm 1 mps 678 mmHg 48%
20:00 +21°C° 0 mm 1 mps 679 mmHg 48%
21:00 +20°C° 0 mm 1 mps 679 mmHg 48%
22:00 +20°C° 0 mm 1 mps 679 mmHg 48%
23:00 +20°C° 0 mm 1 mps 679 mmHg 47%
Show more